Tracking 28790 objects as of 19-Apr-2024
HD Live streaming from Space Station
objects crossing your sky now

STARLINK-6033

Track STARLINK-6033 now!
10-day predictions
STARLINK-6033 is classified as:


NORAD ID: 56322
Int'l Code: 2023-058E
Perigee: 568.8 km
Apogee: 571.4 km
Inclination: 97.7 °
Period: 95.9 minutes
Semi major axis: 6941 km
RCS: Unknown
Launch date: April 27, 2023
Source: United States (US)
Launch site: AIR FORCE WESTERN TEST RANGE (AFWTR)
Your satellite tracking list
Your tracking list is empty




NASA's NSSDC Master Catalog

Two Line Element Set (TLE):
1 56322U 23058F   24109.88982495  .00001089  00000-0  89382-4 0  9997
2 56322  97.6566 111.5072 0001904 104.6395 255.5040 15.01268891 54144
Source of the keplerian elements: AFSPC